Regional Weather Roundup
Issued by NWS

Home | Current Version | Previous Version | Graphics & Text | Print | Product List | Glossary On
Versions: 1 2 3 4 5 6 7 8 9 10 11 12 13 14 15 16 17 18 19 20 21 22 23 24 25 26 27 28 29 30 31 32 33 34 35 36 37 38 39 40 41 42 43 44 45 46 47 48 49 50
198
ASUS43 KMKX 291200
RWRWI

WISCONSIN REGIONAL WEATHER ROUNDUP
NATIONAL WEATHER SERVICE MILWAUKEE/SULLIVAN WI
700 AM CDT SUN MAY 29 2016

NOTE: "FAIR" INDICATES FEW OR NO CLOUDS BELOW 12,000 FEET WITH NO
SIGNIFICANT WEATHER AND/OR OBSTRUCTIONS TO VISIBILITY.

WIZ001-002-006>008-014>016-023>028-291300-
NORTHWEST WISCONSIN

CITY           SKY/WX    TMP DP  RH WIND       PRES   REMARKS
SUPERIOR ARPT  DRIZZLE   55  55 100 SW6       29.80S
ASHLAND        CLOUDY    57  55  93 SW5       29.80S
6HR MIN TEMP:  51; 6HR MAX TEMP:  57; 6HR PCP:  0.01;

HAYWARD        CLOUDY    59  57  93 SW3       29.83R FOG
6HR MIN TEMP:  58; 6HR MAX TEMP:  60; 6HR PCP:  0.02;

SIREN          CLOUDY    60  58  96 W6        29.84R
CUMBERLAND     CLOUDY    59  55  88 W6        29.85R
RICE LAKE      CLOUDY    60  58  91 CALM      29.86R
CHETEK         CLOUDY    60  60  99 W5        29.85R
LADYSMITH      CLOUDY    62  60  96 W6        29.86R
EAU CLAIRE     CLOUDY    61  60  97 W7        29.85R
MENOMONIE      CLOUDY    61  61  99 W5        29.86R
NEW RICHMOND   CLOUDY    60  60  99 W6        29.87R
OSCEOLA        CLOUDY    61  61 100 W8        29.88R
$$

WIZ003>005-009-010-017-018-291300-
NORTH CENTRAL WISCONSIN

CITY           SKY/WX    TMP DP  RH WIND       PRES   REMARKS
MANITOWISH WTR NOT AVBL
ARBOR VITAE    CLOUDY    62  60  95 S5        29.83R FOG
WOODRUFF       CLOUDY    62  60  95 S5        29.83R FOG
RHINELANDER    CLOUDY    61  58  90 SW8       29.85R
6HR MIN TEMP:  60; 6HR MAX TEMP:  64; 6HR PCP:  0.03;

EAGLE RIVER      N/A     59  58  97 SW3       29.84R
LAND O LAKES   CLOUDY    60  59  96 SW3       29.84R
PHILLIPS       CLOUDY    60  60 100 S7        29.82S
6HR MIN TEMP:  59; 6HR MAX TEMP:  60; 6HR PCP:  0.08;

TOMAHAWK       CLOUDY    59  57  95 CALM      29.85R
MEDFORD        CLOUDY    59  59 100 SW5       29.84S
MERRILL        PTSUNNY   63  63 100 CALM      29.85R
$$

WIZ029-030-035-036-043>047-291300-
CENTRAL WISCONSIN

CITY           SKY/WX    TMP DP  RH WIND       PRES   REMARKS
WAUSAU         CLOUDY    65  60  84 SW6       29.83R
6HR MIN TEMP:  64; 6HR MAX TEMP:  67;

MOSINEE        CLOUDY    63  63 100 S7        29.86R
MARSHFIELD     CLOUDY    63  59  87 SW9       29.85R
6HR MIN TEMP:  60; 6HR MAX TEMP:  64; 6HR PCP: TRACE;

STEVENS POINT  CLOUDY    61  60  97 S5        29.86S
WAUPACA        PTSUNNY   64  64 100 S6        29.88R
6HR MIN TEMP:  62; 6HR MAX TEMP:  66; 6HR PCP:  0.01;

WAUTOMA        CLOUDY    63  61  93 S5        29.88S
6HR MIN TEMP:  61; 6HR MAX TEMP:  65;

WISC RAPIDS    PTSUNNY   64  58  80 SW8       29.87R
6HR MIN TEMP:  63; 6HR MAX TEMP:  65;

CAMP DOUGLAS   NOT AVBL
$$

WIZ011>013-019>022-031-037>040-048>050-291300-
NORTHEAST WISCONSIN

CITY           SKY/WX    TMP DP  RH WIND       PRES   REMARKS
ANTIGO         CLOUDY    62  61  97 CALM      29.86R
SHAWANO        MOSUNNY   66  63  90 S5        29.86S
6HR MIN TEMP:  63; 6HR MAX TEMP:  66;

OCONTO         SUNNY    N/A N/A N/A S5        29.86R
STURGEON BAY   NOT AVBL
GREEN BAY      SUNNY     66  63  90 S8        29.87R
6HR MIN TEMP:  63; 6HR MAX TEMP:  66;

MANITOWOC      NOT AVBL
APPLETON       MOSUNNY   64  63  94 SW8       29.87R
CLINTONVILLE   PTSUNNY   63  61  94 S7        29.86R
OSHKOSH        MOSUNNY   65  61  87 S10       29.88S
6HR MIN TEMP:  63; 6HR MAX TEMP:  65;

$$

WIZ032>034-041-042-053>061-291300-
SOUTHWEST WISCONSIN

CITY           SKY/WX    TMP DP  RH WIND       PRES   REMARKS
LA CROSSE      CLOUDY    65  60  84 W8        29.89R
6HR MIN TEMP:  63; 6HR MAX TEMP:  65; 6HR PCP: TRACE;

SPARTA         CLOUDY    63  61  94 W7        29.87R
VIROQUA        CLOUDY    62  62 100 W10       29.90R
BOSCOBEL       CLOUDY    65  62  90 SW9       29.91R
6HR MIN TEMP:  62; 6HR MAX TEMP:  66; 6HR PCP:  0.05;

PRAIRIE DU CHI CLOUDY    64  59  82 W8G18     29.92R
PLATTEVILLE    CLOUDY    64  61  90 SW13      29.94R
$$

WIZ056-057-062-063-064-067-068-291300-
SOUTH CENTRAL WISCONSIN

CITY           SKY/WX    TMP DP  RH WIND       PRES   REMARKS
REEDSBURG      CLOUDY    62  61  95 SW8       29.88R
BARABOO/DELLS  CLOUDY    63  58  84 SW8       29.88R
LONE ROCK      NOT AVBL
MINERAL POINT  CLOUDY    64  61  88 SW13      29.92R
MADISON        PTSUNNY   65  59  81 SW9       29.90R
6HR MIN TEMP:  63; 6HR MAX TEMP:  68;

MIDDLETON      CLOUDY    64  60  86 SW8       29.91R
WATERTOWN      SUNNY     64  63  96 S7        29.91R
MONROE         SUNNY     63  59  88 S10       29.93R
JANESVILLE     SUNNY     64  63  94 S9        29.93R
$$

WIZ051-052-058>065-066-070>072-291300-
SOUTHEAST WISCONSIN

CITY           SKY/WX    TMP DP  RH WIND       PRES   REMARKS
MILWAUKEE      MOSUNNY   66  62  87 SW10      29.94R
6HR MIN TEMP:  63; 6HR MAX TEMP:  66;

WAUKESHA       SUNNY     61  61 100 S8        29.93S
MILWAUKEE/TIMM SUNNY     64  61  88 S8        29.94R
RACINE         SUNNY     67  61  81 SW12      29.96S
6HR MIN TEMP:  63; 6HR MAX TEMP:  67; 6HR PCP: TRACE;

BURLINGTON     SUNNY     63  62  95 S7        29.94S
KENOSHA        SUNNY     66  62  87 S8        29.96R
6HR MIN TEMP:  63; 6HR MAX TEMP:  66;

FOND DU LAC    SUNNY     66  61  84 S8        29.89S
6HR MIN TEMP:  64; 6HR MAX TEMP:  66;

SHEBOYGAN      SUNNY     65  62  90 S6        29.91R
6HR MIN TEMP:  60; 6HR MAX TEMP:  65; 6HR PCP: TRACE;

WEST BEND      SUNNY     63  61  94 S5        29.92R
JUNEAU         SUNNY     63  60  88 S9        29.92R
$$

LSZ147-162-291300-
LAKE SUPERIOR

STATION/POSITION TIME  TEMP    WIND        PRES    WAVE
                       AIR SEA DIR/SP/G            HT/PER
                 (UTC) (F)     (DEG/KT/KT) (MB)    (FT/S)
W MID LAKE BUOY  1050   41 38  200/  4/  4 1008.5R   1
DEVILS ISLAND    1100   45     240/ 12/ 13 1008.9R
SAXON HARBOR     1140   53      CALM  /  2 1008.5R
$$

LMZ867-665-643>646-291300-
LAKE MICHIGAN

STATION/POSITION TIME  TEMP    WIND        PRES    WAVE
                       AIR SEA DIR/SP/G            HT/PER
                 (UTC) (F)     (DEG/KT/KT) (MB)    (FT/S)
CHAMBERS ISLAND  1100   60     160/  5/  8 1011.2R
N MID LAKE BUOY  1050   51 46  190/ 14/ 17 1011.4R   2/ 5
NORTHPORT PIER   1100   53     150/  7/ 10 1011.5R
SISTER BAY       1105   54     160/ 11/ 14   N/A
ALGOMA LAKESHORE 1102             CALM       N/A
KEWAUNEE LAKESHO 1100   51     180/  8/  9 1011.4R
SHEBOYGAN LAKESH 1100   58     190/ 11/ 11 1013.0R
PORT WASHINGTON  1140   52     200/  4/  6 1014.2R
S MID LAKE BUOY  1050   55 50  190/ 10/ 12 1014.1R   1/ 3
KENOSHA   LAKESH 1100   64     200/  7/ 10 1014.2R
$$

TC  - TEMPERATURE IN CELSIUS
VSB - VISIBILITY IN STATUTE MILES
WCI - WIND CHILL INDEX
HX  - HEAT INDEX





USA.gov is the U.S. government's official web portal to all federal, state and local government web resources and services.